Weather History for PHTO - May, 2012

Change the Weather History Date:

Thursday, May 24, 2012

  Actual Average Record
Temperature  
Mean Temperature 76 °F 74 °F  
Max Temperature 82 °F 81 °F 87 °F (1992)
Min Temperature 69 °F 67 °F 63 °F (1975)
Degree Days  
Heating Degree Days 0 0  
Month to date heating degree days 0 0  
Since 1 July heating degree days 0 0  
Cooling Degree Days 11 9  
Month to date cooling degree days 198 204  
Year to date cooling degree days 1033 1001  
Growing Degree Days 26 (Base 50)    
Moisture  
Dew Point 66 °F    
Average Humidity 72    
Maximum Humidity 90    
Minimum Humidity 54    
Precipitation  
Precipitation T in 0.22 in 5.36 in (1964)
Month to date precipitation 4.84 6.65  
Year to date precipitation 42.66 50.44  
Snow  
Snow 0.00 in - - ()
Month to date snowfall 0.0  
Since 1 July snowfall 0.0  
Snow Depth 0.00 in    
Sea Level Pressure  
Sea Level Pressure 30.13 in    
Wind  
Wind Speed 6 mph (WNW)    
Max Wind Speed 18 mph    
Max Gust Speed 23 mph    
Visibility 9 miles    
Events Rain    
T = Trace of Precipitation, MM = Missing Value Source: NWS Daily Summary

Daily Weather History Graph

Daily Weather History Graph

Search for Another Location

Airport or City:

Trip Planner

Search our weather history database for the weather conditions in past years. The results will help you decide how hot, cold, wet, or windy it might be!

Date:

Astronomy

May. 24, 2012 Rise Set
Actual Time 5:41 AM HST 6:52 PM HST
Civil Twilight 5:17 AM HST 7:16 PM HST
Nautical Twilight 4:49 AM HST 7:45 PM HST
Astronomical Twilight 4:20 AM HST 8:14 PM HST
Moon 8:48 AM HST (5/24) 10:07 PM HST (5/24)
Length of Visible Light 13h 58m
Length of Day
13h 10m
Waxing Crescent, 14% of the Moon is Illuminated
May 24
Waxing Crescent
May 28
First Quarter
Jun 4
Full
Jun 11
Last Quarter
Jun 19
New

Hourly Weather History & Observations

Time (HST) Temp. Heat Index Dew Point Humidity Pressure Visibility Wind Dir Wind Speed Gust Speed Precip Events Conditions
12:04 AM 71.6 °F - 66.2 °F 83% 30.16 in 10.0 mi Calm Calm - N/A   Overcast
12:36 AM 71.6 °F - 68.0 °F 88% 30.15 in 10.0 mi Calm Calm - N/A   Overcast
12:53 AM 71.1 °F - 66.9 °F 87% 30.14 in 10.0 mi WSW 4.6 mph - N/A   Overcast
1:03 AM 71.6 °F - 66.2 °F 83% 30.14 in 10.0 mi WSW 4.6 mph - N/A   Overcast
1:40 AM 71.6 °F - 68.0 °F 88% 30.13 in 10.0 mi Calm Calm - 0.00 in   Overcast
1:53 AM 71.1 °F - 66.9 °F 87% 30.12 in 10.0 mi Calm Calm - 0.00 in   Overcast
2:53 AM 70.0 °F - 66.9 °F 90% 30.11 in 10.0 mi SW 3.5 mph - N/A   Scattered Clouds
3:53 AM 71.1 °F - 66.9 °F 87% 30.11 in 10.0 mi SW 3.5 mph - N/A   Overcast
4:53 AM 71.1 °F - 66.9 °F 87% 30.11 in 10.0 mi West 5.8 mph - N/A   Overcast
5:53 AM 70.0 °F - 64.9 °F 84% 30.12 in 10.0 mi WSW 6.9 mph - N/A   Overcast
6:53 AM 71.1 °F - 64.9 °F 81% 30.14 in 10.0 mi WSW 4.6 mph - N/A   Mostly Cloudy
7:53 AM 73.9 °F - 64.9 °F 73% 30.14 in 10.0 mi Calm Calm - N/A   Mostly Cloudy
8:53 AM 77.0 °F - 64.0 °F 64% 30.14 in 10.0 mi WSW 5.8 mph - N/A   Mostly Cloudy
9:53 AM 80.1 °F 81.2 °F 62.1 °F 54% 30.14 in 10.0 mi Variable 3.5 mph - N/A   Overcast
10:53 AM 78.1 °F - 66.9 °F 68% 30.14 in 10.0 mi East 16.1 mph 23.0 mph N/A   Overcast
11:53 AM 80.1 °F 82.3 °F 66.9 °F 64% 30.13 in 10.0 mi East 15.0 mph 20.7 mph N/A   Overcast
12:53 PM 79.0 °F - 64.9 °F 62% 30.12 in 10.0 mi East 9.2 mph - N/A   Overcast
1:31 PM 78.8 °F - 64.4 °F 61% 30.11 in 10.0 mi East 10.4 mph - N/A   Overcast
1:53 PM 78.1 °F - 66.0 °F 66% 30.10 in 10.0 mi NE 9.2 mph - N/A   Overcast
2:53 PM 81.0 °F 82.5 °F 64.0 °F 56% 30.09 in 10.0 mi ENE 4.6 mph - N/A   Mostly Cloudy
3:53 PM 80.1 °F 81.7 °F 64.0 °F 58% 30.08 in 10.0 mi NNE 9.2 mph - N/A   Mostly Cloudy
4:53 PM 80.1 °F 81.5 °F 63.0 °F 56% 30.08 in 10.0 mi ENE 6.9 mph - N/A   Overcast
5:53 PM 79.0 °F - 64.9 °F 62% 30.08 in 10.0 mi NE 8.1 mph - N/A   Overcast
6:53 PM 75.9 °F - 66.0 °F 71% 30.09 in 10.0 mi NE 4.6 mph - N/A   Overcast
7:53 PM 72.0 °F - 68.0 °F 87% 30.12 in 10.0 mi East 11.5 mph - 0.00 in   Overcast
8:25 PM 69.8 °F - 66.2 °F 88% 30.13 in 10.0 mi Calm Calm - 0.00 in   Overcast
8:32 PM 69.8 °F - 66.2 °F 88% 30.13 in 8.0 mi WSW 4.6 mph - 0.00 in Rain Light Rain
8:53 PM 71.1 °F - 66.9 °F 87% 30.13 in 10.0 mi West 5.8 mph - 0.00 in   Overcast
9:05 PM 71.6 °F - 68.0 °F 88% 30.14 in 4.0 mi North 3.5 mph - 0.00 in Rain Rain
9:15 PM 71.6 °F - 68.0 °F 88% 30.14 in 2.0 mi North 4.6 mph - 0.02 in Rain Rain
9:33 PM 69.8 °F - 68.0 °F 94% 30.14 in 4.0 mi WNW 3.5 mph - 0.04 in Rain Light Rain
9:43 PM 71.6 °F - 69.8 °F 94% 30.14 in 4.0 mi WNW 5.8 mph - 0.05 in Rain Light Rain
9:53 PM 71.1 °F - 68.0 °F 90% 30.14 in 5.0 mi WNW 5.8 mph - 0.06 in Rain Light Rain
10:21 PM 69.8 °F - 68.0 °F 94% 30.15 in 7.0 mi West 5.8 mph - 0.03 in Rain Light Rain
10:35 PM 69.8 °F - 68.0 °F 94% 30.14 in 10.0 mi West 6.9 mph - 0.03 in   Overcast
10:42 PM 69.8 °F - 68.0 °F 94% 30.14 in 10.0 mi West 5.8 mph - 0.03 in Rain Light Rain
10:53 PM 70.0 °F - 68.0 °F 93% 30.14 in 10.0 mi West 5.8 mph - 0.03 in   Overcast
11:53 PM 71.1 °F - 68.0 °F 90% 30.12 in 10.0 mi WSW 3.5 mph - 0.00 in   Overcast